Time,TemperatureF,DewpointF,PressureIn,WindDirection,WindDirectionDegrees,WindSpeedMPH,WindSpeedGustMPH,Humidity,HourlyPrecipIn,Conditions,Clouds,dailyrainin,SolarRadiationWatts/m^2,SoftwareType,DateUTC
2013-04-23 00:00:00,40.3,29.8,29.79,SE,135,2.0,6.0,66,0.00,,,-99.99,0,WeatherLink 5.7,2013-04-23 06:00:00,
2013-04-23 00:10:00,39.8,30.1,29.80,SE,135,0.0,3.0,68,0.00,,,-99.99,0,WeatherLink 5.7,2013-04-23 06:10:00,
2013-04-23 00:15:00,39.6,30.3,29.80,SE,135,0.0,3.0,69,0.00,,,-99.99,0,WeatherLink 5.7,2013-04-23 06:15:00,
2013-04-23 00:25:00,39.5,30.5,29.80,East,90,1.0,5.0,70,0.00,,,-99.99,0,WeatherLink 5.7,2013-04-23 06:25:00,
2013-04-23 00:30:00,39.5,30.5,29.80,East,90,0.0,3.0,70,0.00,,,-99.99,0,WeatherLink 5.7,2013-04-23 06:30:00,
2013-04-23 00:35:00,39.3,30.3,29.81,East,90,1.0,5.0,70,0.00,,,-99.99,0,WeatherLink 5.7,2013-04-23 06:35:00,
2013-04-23 00:45:00,39.2,30.9,29.81,SSE,157,1.0,5.0,72,0.00,,,-99.99,0,WeatherLink 5.7,2013-04-23 06:45:00,
2013-04-23 00:55:00,39.2,30.6,29.79,SSE,157,1.0,4.0,71,0.00,,,-99.99,0,WeatherLink 5.7,2013-04-23 06:55:00,
2013-04-23 01:00:00,39.3,30.7,29.79,SE,135,1.0,4.0,71,0.00,,,-99.99,0,WeatherLink 5.7,2013-04-23 07:00:00,
2013-04-23 01:10:00,39.3,30.3,29.80,SSE,157,1.0,6.0,70,0.00,,,-99.99,0,WeatherLink 5.7,2013-04-23 07:10:00,
2013-04-23 01:15:00,39.2,30.6,29.80,ESE,112,0.0,3.0,71,0.00,,,-99.99,0,WeatherLink 5.7,2013-04-23 07:15:00,
2013-04-23 01:20:00,39.0,30.4,29.79,ESE,112,1.0,4.0,71,0.00,,,-99.99,0,WeatherLink 5.7,2013-04-23 07:20:00,
2013-04-23 01:30:00,38.8,30.2,29.79,East,90,1.0,6.0,71,0.00,,,-99.99,0,WeatherLink 5.7,2013-04-23 07:30:00,
2013-04-23 01:35:00,38.8,30.5,29.79,ENE,67,3.0,11.0,72,0.00,,,-99.99,0,WeatherLink 5.7,2013-04-23 07:35:00,
2013-04-23 01:45:00,38.8,30.5,29.79,SE,135,0.0,6.0,72,0.00,,,-99.99,0,WeatherLink 5.7,2013-04-23 07:45:00,
2013-04-23 01:50:00,38.8,30.5,29.78,SE,135,0.0,3.0,72,0.00,,,-99.99,0,WeatherLink 5.7,2013-04-23 07:50:00,
2013-04-23 02:00:00,38.8,30.5,29.78,SE,135,0.0,3.0,72,0.00,,,-99.99,0,WeatherLink 5.7,2013-04-23 08:00:00,
2013-04-23 02:10:00,38.6,30.7,29.78,North,-999,0.0,0.0,73,0.00,,,-99.99,0,WeatherLink 5.7,2013-04-23 08:10:00,
2013-04-23 02:20:00,38.5,30.6,29.79,SE,135,0.0,3.0,73,0.00,,,-99.99,0,WeatherLink 5.7,2013-04-23 08:20:00,
2013-04-23 02:30:00,38.3,30.4,29.79,North,-999,0.0,0.0,73,0.00,,,-99.99,0,WeatherLink 5.7,2013-04-23 08:30:00,
2013-04-23 02:35:00,38.3,30.4,29.80,North,-999,0.0,0.0,73,0.00,,,-99.99,0,WeatherLink 5.7,2013-04-23 08:35:00,
2013-04-23 02:40:00,38.3,30.4,29.80,North,-999,0.0,0.0,73,0.00,,,-99.99,0,WeatherLink 5.7,2013-04-23 08:40:00,
2013-04-23 02:45:00,38.3,30.4,29.80,North,-999,0.0,0.0,73,0.00,,,-99.99,0,WeatherLink 5.7,2013-04-23 08:45:00,
2013-04-23 02:55:00,38.3,30.4,29.80,North,-999,0.0,0.0,73,0.00,,,-99.99,0,WeatherLink 5.7,2013-04-23 08:55:00,
2013-04-23 03:00:00,38.3,30.4,29.80,North,-999,0.0,0.0,73,0.00,,,-99.99,0,WeatherLink 5.7,2013-04-23 09:00:00,
2013-04-23 03:10:00,38.3,30.4,29.80,North,-999,0.0,0.0,73,0.00,,,-99.99,0,WeatherLink 5.7,2013-04-23 09:10:00,
2013-04-23 03:15:00,38.0,30.1,29.80,North,-999,0.0,0.0,73,0.00,,,-99.99,0,WeatherLink 5.7,2013-04-23 09:15:00,
2013-04-23 03:25:00,37.5,30.0,29.80,North,-999,0.0,0.0,74,0.00,,,-99.99,0,WeatherLink 5.7,2013-04-23 09:25:00,
2013-04-23 03:30:00,37.3,29.8,29.80,North,-999,0.0,0.0,74,0.00,,,-99.99,0,WeatherLink 5.7,2013-04-23 09:30:00,
2013-04-23 03:35:00,37.2,30.0,29.80,North,-999,0.0,0.0,75,0.00,,,-99.99,0,WeatherLink 5.7,2013-04-23 09:35:00,
2013-04-23 03:45:00,37.2,30.0,29.80,North,-999,0.0,0.0,75,0.00,,,-99.99,0,WeatherLink 5.7,2013-04-23 09:45:00,
2013-04-23 03:50:00,37.2,30.0,29.79,SE,135,0.0,2.0,75,0.00,,,-99.99,0,WeatherLink 5.7,2013-04-23 09:50:00,
2013-04-23 03:55:00,37.0,29.8,29.79,SE,135,1.0,5.0,75,0.00,,,-99.99,0,WeatherLink 5.7,2013-04-23 09:55:00,
2013-04-23 04:00:00,37.0,29.8,29.79,ESE,112,1.0,4.0,75,0.00,,,-99.99,0,WeatherLink 5.7,2013-04-23 10:00:00,
2013-04-23 04:10:00,36.9,29.4,29.79,North,-999,0.0,0.0,74,0.00,,,-99.99,0,WeatherLink 5.7,2013-04-23 10:10:00,
2013-04-23 04:15:00,36.7,29.2,29.79,SSE,157,0.0,2.0,74,0.00,,,-99.99,0,WeatherLink 5.7,2013-04-23 10:15:00,
2013-04-23 04:20:00,36.5,29.3,29.80,SSE,157,1.0,4.0,75,0.00,,,-99.99,0,WeatherLink 5.7,2013-04-23 10:20:00,
2013-04-23 04:30:00,36.0,29.2,29.80,North,-999,0.0,0.0,76,0.00,,,-99.99,0,WeatherLink 5.7,2013-04-23 10:30:00,
2013-04-23 04:35:00,35.9,29.1,29.82,North,-999,0.0,0.0,76,0.00,,,-99.99,0,WeatherLink 5.7,2013-04-23 10:35:00,
2013-04-23 04:45:00,35.7,29.2,29.82,North,-999,0.0,0.0,77,0.00,,,-99.99,0,WeatherLink 5.7,2013-04-23 10:45:00,
2013-04-23 04:55:00,35.0,27.2,29.82,NW,315,0.0,3.0,73,0.00,,,-99.99,0,WeatherLink 5.7,2013-04-23 10:55:00,
2013-04-23 05:00:00,34.7,26.9,29.82,NW,315,1.0,9.0,73,0.00,,,-99.99,0,WeatherLink 5.7,2013-04-23 11:00:00,
2013-04-23 05:10:00,34.6,26.8,29.82,North,-999,0.0,0.0,73,0.00,,,-99.99,0,WeatherLink 5.7,2013-04-23 11:10:00,
2013-04-23 05:15:00,34.4,26.3,29.82,North,-999,0.0,0.0,72,0.00,,,-99.99,0,WeatherLink 5.7,2013-04-23 11:15:00,
2013-04-23 05:25:00,34.4,24.6,29.84,NNW,337,2.0,10.0,67,0.00,,,-99.99,0,WeatherLink 5.7,2013-04-23 11:25:00,
2013-04-23 05:30:00,34.6,24.0,29.84,WNW,292,3.0,9.0,65,0.00,,,-99.99,0,WeatherLink 5.7,2013-04-23 11:30:00,
2013-04-23 05:40:00,34.6,23.3,29.85,West,270,5.0,13.0,63,0.00,,,-99.99,0,WeatherLink 5.7,2013-04-23 11:40:00,
2013-04-23 05:45:00,34.4,22.7,29.85,WNW,292,4.0,9.0,62,0.00,,,-99.99,0,WeatherLink 5.7,2013-04-23 11:45:00,
2013-04-23 05:55:00,34.1,22.0,29.86,NNW,337,6.0,16.0,61,0.00,,,-99.99,0,WeatherLink 5.7,2013-04-23 11:55:00,
2013-04-23 06:00:00,34.0,22.0,29.86,West,270,6.0,13.0,61,0.00,,,-99.99,0,WeatherLink 5.7,2013-04-23 12:00:00,
2013-04-23 06:05:00,33.7,21.3,29.87,WNW,292,6.0,13.0,60,0.00,,,-99.99,0,WeatherLink 5.7,2013-04-23 12:05:00,
2013-04-23 06:15:00,33.1,20.7,29.87,NW,315,5.0,14.0,60,0.00,,,-99.99,0,WeatherLink 5.7,2013-04-23 12:15:00,
2013-04-23 06:20:00,32.8,20.8,29.91,West,270,5.0,14.0,61,0.00,,,-99.99,0,WeatherLink 5.7,2013-04-23 12:20:00,
2013-04-23 06:25:00,32.6,20.2,29.91,West,270,6.0,12.0,60,0.00,,,-99.99,0,WeatherLink 5.7,2013-04-23 12:25:00,
2013-04-23 06:35:00,32.5,19.7,29.92,NW,315,7.0,19.0,59,0.00,,,-99.99,2,WeatherLink 5.7,2013-04-23 12:35:00,
2013-04-23 06:45:00,32.4,19.7,29.92,NNW,337,1.0,4.0,59,0.00,,,-99.99,7,WeatherLink 5.7,2013-04-23 12:45:00,
2013-04-23 06:50:00,32.5,19.7,29.93,NW,315,1.0,4.0,59,0.00,,,-99.99,9,WeatherLink 5.7,2013-04-23 12:50:00,
2013-04-23 07:00:00,32.4,19.3,29.93,NNW,337,1.0,4.0,58,0.00,,,-99.99,13,WeatherLink 5.7,2013-04-23 13:00:00,
2013-04-23 07:10:00,32.2,19.1,29.94,North,-999,0.0,0.0,58,0.00,,,-99.99,23,WeatherLink 5.7,2013-04-23 13:10:00,
2013-04-23 07:15:00,32.1,18.6,29.94,WNW,292,1.0,4.0,57,0.00,,,-99.99,29,WeatherLink 5.7,2013-04-23 13:15:00,
2013-04-23 07:25:00,31.8,18.7,29.96,North,0,1.0,3.0,58,0.00,,,-99.99,53,WeatherLink 5.7,2013-04-23 13:25:00,
2013-04-23 07:30:00,31.6,18.5,29.96,North,0,1.0,4.0,58,0.00,,,-99.99,72,WeatherLink 5.7,2013-04-23 13:30:00,
2013-04-23 07:40:00,31.5,18.8,29.97,NW,315,1.0,4.0,59,0.00,,,-99.99,63,WeatherLink 5.7,2013-04-23 13:40:00,
2013-04-23 07:45:00,31.5,18.4,29.97,North,0,0.0,4.0,58,0.00,,,-99.99,65,WeatherLink 5.7,2013-04-23 13:45:00,
2013-04-23 07:55:00,31.2,17.7,29.97,NW,315,1.0,5.0,57,0.00,,,-99.99,73,WeatherLink 5.7,2013-04-23 13:55:00,
2013-04-23 08:00:00,31.0,17.5,29.97,North,0,1.0,10.0,57,0.00,,,-99.99,175,WeatherLink 5.7,2013-04-23 14:00:00,
2013-04-23 08:10:00,30.7,17.3,29.98,North,0,5.0,20.0,57,0.00,,,-99.99,100,WeatherLink 5.7,2013-04-23 14:10:00,
2013-04-23 08:20:00,31.3,17.8,29.97,North,0,2.0,10.0,57,0.00,,,-99.99,253,WeatherLink 5.7,2013-04-23 14:20:00,
2013-04-23 08:25:00,31.8,17.5,29.97,North,0,1.0,7.0,55,0.00,,,-99.99,374,WeatherLink 5.7,2013-04-23 14:25:00,
2013-04-23 08:35:00,31.6,17.3,29.98,NNW,337,3.0,12.0,55,0.00,,,-99.99,157,WeatherLink 5.7,2013-04-23 14:35:00,
2013-04-23 08:40:00,31.6,17.3,29.98,North,0,1.0,12.0,55,0.00,,,-99.99,236,WeatherLink 5.7,2013-04-23 14:40:00,
2013-04-23 08:45:00,31.8,17.0,29.98,North,0,2.0,6.0,54,0.00,,,-99.99,214,WeatherLink 5.7,2013-04-23 14:45:00,
2013-04-23 08:50:00,32.2,17.0,29.98,North,0,1.0,6.0,53,0.00,,,-99.99,530,WeatherLink 5.7,2013-04-23 14:50:00,
2013-04-23 09:00:00,33.1,16.9,29.98,North,0,1.0,5.0,51,0.00,,,-99.99,496,WeatherLink 5.7,2013-04-23 15:00:00,
2013-04-23 09:10:00,33.2,17.0,29.99,North,0,1.0,6.0,51,0.00,,,-99.99,576,WeatherLink 5.7,2013-04-23 15:10:00,
2013-04-23 09:15:00,34.0,17.3,29.99,North,0,1.0,5.0,50,0.00,,,-99.99,584,WeatherLink 5.7,2013-04-23 15:15:00,
2013-04-23 09:25:00,34.0,16.8,30.00,North,0,1.0,7.0,49,0.00,,,-99.99,550,WeatherLink 5.7,2013-04-23 15:25:00,
2013-04-23 09:30:00,33.5,16.8,30.00,North,0,3.0,13.0,50,0.00,,,-99.99,596,WeatherLink 5.7,2013-04-23 15:30:00,
2013-04-23 09:40:00,33.5,16.4,30.01,North,0,2.0,7.0,49,0.00,,,-99.99,630,WeatherLink 5.7,2013-04-23 15:40:00,
2013-04-23 09:45:00,33.8,16.2,30.01,NNW,337,5.0,16.0,48,0.00,,,-99.99,653,WeatherLink 5.7,2013-04-23 15:45:00,
2013-04-23 09:55:00,34.3,16.1,30.00,North,0,1.0,12.0,47,0.00,,,-99.99,668,WeatherLink 5.7,2013-04-23 15:55:00,
2013-04-23 10:00:00,34.7,16.5,30.00,North,0,2.0,8.0,47,0.00,,,-99.99,704,WeatherLink 5.7,2013-04-23 16:00:00,
2013-04-23 10:10:00,34.9,16.2,30.00,North,0,1.0,5.0,46,0.00,,,-99.99,746,WeatherLink 5.7,2013-04-23 16:10:00,
2013-04-23 10:15:00,34.9,15.2,30.00,North,0,1.0,4.0,44,0.00,,,-99.99,784,WeatherLink 5.7,2013-04-23 16:15:00,
2013-04-23 10:25:00,35.6,15.8,30.00,NNW,337,2.0,9.0,44,0.00,,,-99.99,773,WeatherLink 5.7,2013-04-23 16:25:00,
2013-04-23 10:30:00,35.9,15.5,30.00,North,0,2.0,8.0,43,0.00,,,-99.99,796,WeatherLink 5.7,2013-04-23 16:30:00,
2013-04-23 10:35:00,36.7,15.2,29.99,NNW,337,0.0,4.0,41,0.00,,,-99.99,791,WeatherLink 5.7,2013-04-23 16:35:00,
2013-04-23 10:45:00,36.6,15.6,29.99,North,0,3.0,14.0,42,0.00,,,-99.99,830,WeatherLink 5.7,2013-04-23 16:45:00,
2013-04-23 10:50:00,37.2,15.6,29.99,North,0,2.0,10.0,41,0.00,,,-99.99,843,WeatherLink 5.7,2013-04-23 16:50:00,
2013-04-23 10:55:00,37.3,15.2,29.99,NNW,337,2.0,5.0,40,0.00,,,-99.99,843,WeatherLink 5.7,2013-04-23 16:55:00,
2013-04-23 11:00:00,38.0,16.4,29.99,North,-999,0.0,0.0,41,0.00,,,-99.99,846,WeatherLink 5.7,2013-04-23 17:00:00,
2013-04-23 11:10:00,37.0,13.7,29.98,NNW,337,6.0,17.0,38,0.00,,,-99.99,831,WeatherLink 5.7,2013-04-23 17:10:00,
2013-04-23 11:15:00,37.0,16.0,29.98,NW,315,5.0,16.0,42,0.00,,,-99.99,895,WeatherLink 5.7,2013-04-23 17:15:00,
2013-04-23 11:20:00,37.9,14.5,30.00,WNW,292,1.0,6.0,38,0.00,,,-99.99,892,WeatherLink 5.7,2013-04-23 17:20:00,
2013-04-23 11:25:00,39.6,16.0,30.00,ENE,67,0.0,4.0,38,0.00,,,-99.99,900,WeatherLink 5.7,2013-04-23 17:25:00,
2013-04-23 11:35:00,38.2,15.4,29.99,North,0,1.0,10.0,39,0.00,,,-99.99,823,WeatherLink 5.7,2013-04-23 17:35:00,
2013-04-23 11:40:00,38.2,12.9,29.99,WNW,292,3.0,11.0,35,0.00,,,-99.99,930,WeatherLink 5.7,2013-04-23 17:40:00,
2013-04-23 11:50:00,38.6,13.3,29.99,North,0,4.0,16.0,35,0.00,,,-99.99,946,WeatherLink 5.7,2013-04-23 17:50:00,
2013-04-23 11:55:00,38.9,12.2,29.99,NW,315,5.0,14.0,33,0.00,,,-99.99,954,WeatherLink 5.7,2013-04-23 17:55:00,
2013-04-23 12:00:00,40.0,14.5,29.99,NNW,337,0.0,4.0,35,0.00,,,-99.99,965,WeatherLink 5.7,2013-04-23 18:00:00,
2013-04-23 12:10:00,39.2,12.5,29.98,WSW,247,3.0,11.0,33,0.00,,,-99.99,987,WeatherLink 5.7,2013-04-23 18:10:00,
2013-04-23 12:15:00,39.0,13.0,29.98,NNW,337,6.0,18.0,34,0.00,,,-99.99,994,WeatherLink 5.7,2013-04-23 18:15:00,
2013-04-23 12:20:00,40.5,14.3,29.99,NNW,337,1.0,5.0,34,0.00,,,-99.99,998,WeatherLink 5.7,2013-04-23 18:20:00,
2013-04-23 12:30:00,40.8,15.9,29.99,SSW,202,3.0,13.0,36,0.00,,,-99.99,1018,WeatherLink 5.7,2013-04-23 18:30:00,
2013-04-23 12:35:00,40.5,11.4,29.97,West,270,4.0,14.0,30,0.00,,,-99.99,1017,WeatherLink 5.7,2013-04-23 18:35:00,
2013-04-23 12:40:00,41.0,12.6,29.97,North,0,6.0,13.0,31,0.00,,,-99.99,1046,WeatherLink 5.7,2013-04-23 18:40:00,
2013-04-23 12:50:00,41.6,13.2,29.97,NNW,337,5.0,13.0,31,0.00,,,-99.99,1020,WeatherLink 5.7,2013-04-23 18:50:00,
2013-04-23 12:55:00,42.5,12.4,29.97,WNW,292,1.0,4.0,29,0.00,,,-99.99,1020,WeatherLink 5.7,2013-04-23 18:55:00,
2013-04-23 13:00:00,42.9,14.3,29.97,NNW,337,2.0,11.0,31,0.00,,,-99.99,1040,WeatherLink 5.7,2013-04-23 19:00:00,
2013-04-23 13:10:00,41.5,11.6,29.97,North,0,4.0,13.0,29,0.00,,,-99.99,1068,WeatherLink 5.7,2013-04-23 19:10:00,
2013-04-23 13:15:00,41.3,11.4,29.97,North,0,2.0,9.0,29,0.00,,,-99.99,1084,WeatherLink 5.7,2013-04-23 19:15:00,
2013-04-23 13:25:00,42.2,12.2,29.96,NNW,337,2.0,11.0,29,0.00,,,-99.99,1113,WeatherLink 5.7,2013-04-23 19:25:00,
2013-04-23 13:30:00,42.9,10.3,29.96,NNW,337,5.0,12.0,26,0.00,,,-99.99,1080,WeatherLink 5.7,2013-04-23 19:30:00,
2013-04-23 13:35:00,42.8,11.9,29.94,North,0,4.0,14.0,28,0.00,,,-99.99,1105,WeatherLink 5.7,2013-04-23 19:35:00,
2013-04-23 13:45:00,43.0,10.4,29.94,North,0,6.0,16.0,26,0.00,,,-99.99,1138,WeatherLink 5.7,2013-04-23 19:45:00,
2013-04-23 13:50:00,42.8,12.7,29.94,North,0,2.0,11.0,29,0.00,,,-99.99,1105,WeatherLink 5.7,2013-04-23 19:50:00,
2013-04-23 13:55:00,42.9,10.3,29.94,North,0,4.0,17.0,26,0.00,,,-99.99,1111,WeatherLink 5.7,2013-04-23 19:55:00,
2013-04-23 14:00:00,42.6,9.2,29.94,North,0,3.0,10.0,25,0.00,,,-99.99,1060,WeatherLink 5.7,2013-04-23 20:00:00,
2013-04-23 14:10:00,42.5,8.2,29.94,NNW,337,6.0,15.0,24,0.00,,,-99.99,1087,WeatherLink 5.7,2013-04-23 20:10:00,
2013-04-23 14:15:00,42.6,10.1,29.94,WNW,292,6.0,13.0,26,0.00,,,-99.99,1018,WeatherLink 5.7,2013-04-23 20:15:00,
2013-04-23 14:25:00,43.0,6.7,29.96,NNW,337,4.0,17.0,22,0.00,,,-99.99,980,WeatherLink 5.7,2013-04-23 20:25:00,
2013-04-23 14:30:00,43.2,9.7,29.96,NNW,337,4.0,11.0,25,0.00,,,-99.99,972,WeatherLink 5.7,2013-04-23 20:30:00,
2013-04-23 14:36:00,42.8,6.5,29.96,NNW,337,9.0,15.0,22,0.00,,,-99.99,964,WeatherLink 5.7,2013-04-23 20:36:00,
2013-04-23 14:45:00,43.8,9.3,29.96,NW,315,2.0,6.0,24,0.00,,,-99.99,950,WeatherLink 5.7,2013-04-23 20:45:00,
2013-04-23 14:50:00,44.6,8.0,29.94,NNW,337,2.0,11.0,22,0.00,,,-99.99,942,WeatherLink 5.7,2013-04-23 20:50:00,
2013-04-23 15:00:00,43.0,5.7,29.94,North,0,6.0,17.0,21,0.00,,,-99.99,926,WeatherLink 5.7,2013-04-23 21:00:00,
2013-04-23 15:10:00,43.8,7.4,29.97,NNW,337,4.0,17.0,22,0.00,,,-99.99,905,WeatherLink 5.7,2013-04-23 21:10:00,
2013-04-23 15:15:00,43.5,7.1,29.97,NNW,337,6.0,13.0,22,0.00,,,-99.99,895,WeatherLink 5.7,2013-04-23 21:15:00,
2013-04-23 15:20:00,43.8,6.3,29.96,NNW,337,6.0,15.0,21,0.00,,,-99.99,883,WeatherLink 5.7,2013-04-23 21:20:00,
2013-04-23 15:25:00,43.2,4.8,29.96,NNW,337,9.0,15.0,20,0.00,,,-99.99,873,WeatherLink 5.7,2013-04-23 21:25:00,
2013-04-23 15:35:00,44.3,6.7,29.96,NNW,337,6.0,21.0,21,0.00,,,-99.99,852,WeatherLink 5.7,2013-04-23 21:35:00,
2013-04-23 15:40:00,43.0,3.5,29.96,NNW,337,9.0,21.0,19,0.00,,,-99.99,839,WeatherLink 5.7,2013-04-23 21:40:00,
2013-04-23 15:45:00,43.3,5.9,29.96,NNW,337,7.0,19.0,21,0.00,,,-99.99,825,WeatherLink 5.7,2013-04-23 21:45:00,
2013-04-23 15:55:00,43.3,4.8,29.96,North,0,9.0,18.0,20,0.00,,,-99.99,801,WeatherLink 5.7,2013-04-23 21:55:00,
2013-04-23 16:00:00,43.3,4.8,29.96,NNW,337,6.0,13.0,20,0.00,,,-99.99,786,WeatherLink 5.7,2013-04-23 22:00:00,
2013-04-23 16:06:00,43.3,5.9,29.96,NW,315,8.0,16.0,21,0.00,,,-99.99,775,WeatherLink 5.7,2013-04-23 22:06:00,
2013-04-23 16:15:00,43.2,4.8,29.96,NNW,337,9.0,16.0,20,0.00,,,-99.99,746,WeatherLink 5.7,2013-04-23 22:15:00,
2013-04-23 16:20:00,43.0,5.7,29.98,NNW,337,10.0,17.0,21,0.00,,,-99.99,732,WeatherLink 5.7,2013-04-23 22:20:00,
2013-04-23 16:30:00,42.9,6.6,29.98,NW,315,7.0,16.0,22,0.00,,,-99.99,702,WeatherLink 5.7,2013-04-23 22:30:00,
2013-04-23 16:40:00,43.2,8.8,29.98,NNW,337,8.0,13.0,24,0.00,,,-99.99,669,WeatherLink 5.7,2013-04-23 22:40:00,
2013-04-23 16:45:00,43.3,7.9,29.98,NNW,337,6.0,18.0,23,0.00,,,-99.99,656,WeatherLink 5.7,2013-04-23 22:45:00,
2013-04-23 16:50:00,43.3,7.9,29.99,NW,315,8.0,16.0,23,0.00,,,-99.99,639,WeatherLink 5.7,2013-04-23 22:50:00,
2013-04-23 17:00:00,43.2,6.8,29.99,NNW,337,5.0,14.0,22,0.00,,,-99.99,602,WeatherLink 5.7,2013-04-23 23:00:00,
2013-04-23 17:10:00,43.2,7.8,29.99,NW,315,7.0,19.0,23,0.00,,,-99.99,586,WeatherLink 5.7,2013-04-23 23:10:00,
2013-04-23 17:15:00,42.8,7.5,29.99,NNW,337,7.0,15.0,23,0.00,,,-99.99,554,WeatherLink 5.7,2013-04-23 23:15:00,
2013-04-23 17:20:00,42.6,7.3,30.00,NW,315,9.0,17.0,23,0.00,,,-99.99,547,WeatherLink 5.7,2013-04-23 23:20:00,
2013-04-23 17:30:00,43.0,6.7,30.00,NNW,337,5.0,14.0,22,0.00,,,-99.99,502,WeatherLink 5.7,2013-04-23 23:30:00,
2013-04-23 17:35:00,42.8,6.5,30.01,NNW,337,7.0,13.0,22,0.00,,,-99.99,489,WeatherLink 5.7,2013-04-23 23:35:00,
2013-04-23 17:40:00,42.3,8.0,30.01,NNW,337,6.0,14.0,24,0.00,,,-99.99,76,WeatherLink 5.7,2013-04-23 23:40:00,
2013-04-23 17:45:00,42.3,7.1,30.01,NNW,337,6.0,14.0,23,0.00,,,-99.99,318,WeatherLink 5.7,2013-04-23 23:45:00,
2013-04-23 17:55:00,42.5,7.2,30.02,NNW,337,6.0,12.0,23,0.00,,,-99.99,412,WeatherLink 5.7,2013-04-23 23:55:00,
2013-04-23 18:00:00,43.0,9.5,30.02,NNW,337,2.0,9.0,25,0.00,,,-99.99,389,WeatherLink 5.7,2013-04-24 00:00:00,
2013-04-23 18:10:00,43.5,8.1,30.02,NW,315,2.0,7.0,23,0.00,,,-99.99,349,WeatherLink 5.7,2013-04-24 00:10:00,
2013-04-23 18:20:00,42.6,8.3,30.04,NNW,337,1.0,9.0,24,0.00,,,-99.99,166,WeatherLink 5.7,2013-04-24 00:20:00,
2013-04-23 18:25:00,42.8,9.3,30.04,NW,315,2.0,8.0,25,0.00,,,-99.99,119,WeatherLink 5.7,2013-04-24 00:25:00,
2013-04-23 18:35:00,42.3,8.0,30.04,NW,315,4.0,10.0,24,0.00,,,-99.99,104,WeatherLink 5.7,2013-04-24 00:35:00,
2013-04-23 18:40:00,42.2,8.8,30.04,NW,315,1.0,4.0,25,0.00,,,-99.99,100,WeatherLink 5.7,2013-04-24 00:40:00,
2013-04-23 18:45:00,41.6,8.3,30.04,NW,315,2.0,7.0,25,0.00,,,-99.99,28,WeatherLink 5.7,2013-04-24 00:45:00,
2013-04-23 18:50:00,41.2,7.1,30.06,NW,315,3.0,10.0,24,0.00,,,-99.99,25,WeatherLink 5.7,2013-04-24 00:50:00,
2013-04-23 18:55:00,40.9,6.8,30.06,NNW,337,4.0,10.0,24,0.00,,,-99.99,24,WeatherLink 5.7,2013-04-24 00:55:00,
2013-04-23 19:00:00,40.8,7.6,30.06,NW,315,3.0,7.0,25,0.00,,,-99.99,23,WeatherLink 5.7,2013-04-24 01:00:00,
2013-04-23 19:10:00,40.5,7.4,30.06,NW,315,0.0,2.0,25,0.00,,,-99.99,20,WeatherLink 5.7,2013-04-24 01:10:00,
2013-04-23 19:15:00,40.3,7.2,30.06,NW,315,2.0,6.0,25,0.00,,,-99.99,19,WeatherLink 5.7,2013-04-24 01:15:00,
2013-04-23 19:20:00,40.3,8.1,30.08,NW,315,0.0,1.0,26,0.00,,,-99.99,18,WeatherLink 5.7,2013-04-24 01:20:00,
2013-04-23 19:25:00,40.0,7.8,30.08,NW,315,2.0,10.0,26,0.00,,,-99.99,16,WeatherLink 5.7,2013-04-24 01:25:00,
2013-04-23 19:35:00,40.0,6.9,30.08,NNW,337,2.0,5.0,25,0.00,,,-99.99,13,WeatherLink 5.7,2013-04-24 01:35:00,
2013-04-23 19:40:00,40.0,6.9,30.08,NW,315,2.0,10.0,25,0.00,,,-99.99,11,WeatherLink 5.7,2013-04-24 01:40:00,
2013-04-23 19:50:00,39.9,6.9,30.08,NNW,337,0.0,3.0,25,0.00,,,-99.99,8,WeatherLink 5.7,2013-04-24 01:50:00,
2013-04-23 19:55:00,39.8,7.6,30.08,WNW,292,1.0,4.0,26,0.00,,,-99.99,4,WeatherLink 5.7,2013-04-24 01:55:00,
2013-04-23 20:00:00,39.5,8.2,30.08,North,-999,0.0,0.0,27,0.00,,,-99.99,0,WeatherLink 5.7,2013-04-24 02:00:00,
2013-04-23 20:10:00,38.8,7.6,30.08,North,-999,0.0,0.0,27,0.00,,,-99.99,0,WeatherLink 5.7,2013-04-24 02:10:00,
2013-04-23 20:15:00,38.5,8.2,30.08,North,-999,0.0,0.0,28,0.00,,,-99.99,0,WeatherLink 5.7,2013-04-24 02:15:00,
2013-04-23 20:20:00,38.3,8.8,30.08,North,-999,0.0,0.0,29,0.00,,,-99.99,0,WeatherLink 5.7,2013-04-24 02:20:00,
2013-04-23 20:30:00,37.0,9.1,30.08,NW,315,0.0,1.0,31,0.00,,,-99.99,0,WeatherLink 5.7,2013-04-24 02:30:00,
2013-04-23 20:35:00,36.5,8.7,30.09,North,-999,0.0,0.0,31,0.00,,,-99.99,0,WeatherLink 5.7,2013-04-24 02:35:00,
2013-04-23 20:40:00,35.9,8.2,30.09,NW,315,0.0,1.0,31,0.00,,,-99.99,0,WeatherLink 5.7,2013-04-24 02:40:00,
2013-04-23 20:45:00,35.5,7.8,30.09,ESE,112,1.0,4.0,31,0.00,,,-99.99,0,WeatherLink 5.7,2013-04-24 02:45:00,
2013-04-23 20:55:00,35.5,7.8,30.11,SE,135,0.0,2.0,31,0.00,,,-99.99,0,WeatherLink 5.7,2013-04-24 02:55:00,
2013-04-23 21:00:00,35.3,8.3,30.11,SE,135,0.0,2.0,32,0.00,,,-99.99,0,WeatherLink 5.7,2013-04-24 03:00:00,
2013-04-23 21:10:00,34.9,8.7,30.11,SE,135,0.0,2.0,33,0.00,,,-99.99,0,WeatherLink 5.7,2013-04-24 03:10:00,
2013-04-23 21:15:00,34.7,8.5,30.11,SE,135,0.0,2.0,33,0.00,,,-99.99,0,WeatherLink 5.7,2013-04-24 03:15:00,
2013-04-23 21:20:00,34.4,8.9,30.11,SE,135,0.0,2.0,34,0.00,,,-99.99,0,WeatherLink 5.7,2013-04-24 03:20:00,
2013-04-23 21:30:00,33.7,9.5,30.11,SE,135,1.0,3.0,36,0.00,,,-99.99,0,WeatherLink 5.7,2013-04-24 03:30:00,
2013-04-23 21:35:00,33.5,9.4,30.13,SE,135,1.0,3.0,36,0.00,,,-99.99,0,WeatherLink 5.7,2013-04-24 03:35:00,
2013-04-23 21:45:00,33.2,9.7,30.13,North,-999,0.0,0.0,37,0.00,,,-99.99,0,WeatherLink 5.7,2013-04-24 03:45:00,
2013-04-23 21:50:00,33.1,10.8,30.13,SSW,202,0.0,3.0,39,0.00,,,-99.99,0,WeatherLink 5.7,2013-04-24 03:50:00,
2013-04-23 22:00:00,32.6,10.9,30.13,North,-999,0.0,0.0,40,0.00,,,-99.99,0,WeatherLink 5.7,2013-04-24 04:00:00,
2013-04-23 22:05:00,32.4,10.7,30.13,South,180,0.0,1.0,40,0.00,,,-99.99,0,WeatherLink 5.7,2013-04-24 04:05:00,
2013-04-23 22:10:00,32.4,10.7,30.13,North,-999,0.0,0.0,40,0.00,,,-99.99,0,WeatherLink 5.7,2013-04-24 04:10:00,
2013-04-23 22:15:00,32.4,10.7,30.13,East,90,1.0,4.0,40,0.00,,,-99.99,0,WeatherLink 5.7,2013-04-24 04:15:00,
2013-04-23 22:25:00,32.1,11.0,30.13,East,90,0.0,1.0,41,0.00,,,-99.99,0,WeatherLink 5.7,2013-04-24 04:25:00,
2013-04-23 22:30:00,31.9,10.8,30.13,North,-999,0.0,0.0,41,0.00,,,-99.99,0,WeatherLink 5.7,2013-04-24 04:30:00,
2013-04-23 22:40:00,31.5,11.5,30.13,North,-999,0.0,0.0,43,0.00,,,-99.99,0,WeatherLink 5.7,2013-04-24 04:40:00,
2013-04-23 22:45:00,31.2,11.8,30.13,North,-999,0.0,0.0,44,0.00,,,-99.99,0,WeatherLink 5.7,2013-04-24 04:45:00,
2013-04-23 22:55:00,30.4,12.1,30.13,North,-999,0.0,0.0,46,0.00,,,-99.99,0,WeatherLink 5.7,2013-04-24 04:55:00,
2013-04-23 23:00:00,30.3,12.0,30.13,North,-999,0.0,0.0,46,0.00,,,-99.99,0,WeatherLink 5.7,2013-04-24 05:00:00,
2013-04-23 23:10:00,30.0,11.7,30.15,North,-999,0.0,0.0,46,0.00,,,-99.99,0,WeatherLink 5.7,2013-04-24 05:10:00,
2013-04-23 23:15:00,29.8,12.0,30.15,North,-999,0.0,0.0,47,0.00,,,-99.99,0,WeatherLink 5.7,2013-04-24 05:15:00,
2013-04-23 23:20:00,29.8,12.0,30.14,East,90,0.0,1.0,47,0.00,,,-99.99,0,WeatherLink 5.7,2013-04-24 05:20:00,
2013-04-23 23:25:00,29.8,12.0,30.14,North,-999,0.0,0.0,47,0.00,,,-99.99,0,WeatherLink 5.7,2013-04-24 05:25:00,
2013-04-23 23:35:00,29.5,12.7,30.15,East,90,1.0,3.0,49,0.00,,,-99.99,0,WeatherLink 5.7,2013-04-24 05:35:00,
2013-04-23 23:40:00,29.7,12.8,30.15,SE,135,0.0,3.0,49,0.00,,,-99.99,0,WeatherLink 5.7,2013-04-24 05:40:00,
2013-04-23 23:45:00,29.5,12.7,30.15,North,-999,0.0,0.0,49,0.00,,,-99.99,0,WeatherLink 5.7,2013-04-24 05:45:00,
2013-04-23 23:55:00,29.2,12.4,30.16,North,-999,0.0,0.0,49,0.00,,,-99.99,0,WeatherLink 5.7,2013-04-24 05:55:00,